Hourly Weather Bruges

Today, 7 July, Tuesday

Time Temperature Precipitation Wind Pressure Humidity
00:00 +12°C° 0 mm 3 mps 766 mmHg 87%
01:00 +12°C° 0 mm 3 mps 765 mmHg 87%
02:00 +12°C° 0 mm 3 mps 765 mmHg 88%
03:00 +12°C° 0 mm 4 mps 765 mmHg 88%
04:00 +13°C° 0 mm 4 mps 765 mmHg 84%
05:00 +14°C° 0 mm 3 mps 765 mmHg 79%
06:00 +16°C° 0 mm 3 mps 765 mmHg 75%
07:00 +17°C° 0 mm 4 mps 765 mmHg 70%
08:00 +18°C° 0 mm 4 mps 764 mmHg 65%
09:00 +18°C° 0 mm 4 mps 764 mmHg 60%
10:00 +19°C° 0 mm 5 mps 764 mmHg 58%
11:00 +19°C° 0 mm 5 mps 764 mmHg 56%
12:00 +20°C° 0 mm 4 mps 764 mmHg 55%
13:00 +20°C° 0 mm 4 mps 764 mmHg 55%
14:00 +20°C° 0 mm 4 mps 763 mmHg 56%
15:00 +19°C° 0 mm 4 mps 763 mmHg 57%
16:00 +19°C° 0 mm 4 mps 763 mmHg 60%
17:00 +18°C° 0 mm 4 mps 762 mmHg 64%
18:00 +17°C° 0 mm 5 mps 762 mmHg 67%
19:00 +17°C° 0.1 mm 4 mps 762 mmHg 68%
20:00 +17°C° 0.1 mm 4 mps 762 mmHg 70%
21:00 +16°C° 0.1 mm 3 mps 762 mmHg 71%
22:00 +15°C° 0.1 mm 4 mps 762 mmHg 74%
23:00 +14°C° 0.1 mm 4 mps 761 mmHg 76%

Tomorrow, 8 July, Wednesday

Time Temperature Precipitation Wind Pressure Humidity
00:00 +14°C° 0.1 mm 4 mps 761 mmHg 79%
01:00 +14°C° 0.6 mm 5 mps 761 mmHg 82%
02:00 +14°C° 0.6 mm 5 mps 760 mmHg 86%
03:00 +14°C° 0.6 mm 6 mps 760 mmHg 89%
04:00 +14°C° 1.5 mm 6 mps 760 mmHg 91%
05:00 +15°C° 1.5 mm 7 mps 759 mmHg 92%
06:00 +15°C° 1.5 mm 7 mps 759 mmHg 94%
07:00 +15°C° 0.9 mm 7 mps 759 mmHg 94%
08:00 +16°C° 0.9 mm 7 mps 760 mmHg 94%
09:00 +16°C° 0.9 mm 7 mps 760 mmHg 94%
10:00 +16°C° 0.5 mm 6 mps 760 mmHg 94%
11:00 +16°C° 0.5 mm 6 mps 760 mmHg 93%
12:00 +16°C° 0.5 mm 5 mps 760 mmHg 93%
13:00 +17°C° 0.2 mm 4 mps 761 mmHg 93%
14:00 +17°C° 0.2 mm 4 mps 761 mmHg 92%
15:00 +17°C° 0.2 mm 3 mps 761 mmHg 91%
16:00 +17°C° 0 mm 2 mps 761 mmHg 91%
17:00 +17°C° 0 mm 2 mps 761 mmHg 91%
18:00 +18°C° 0 mm 1 mps 761 mmHg 90%
19:00 +16°C° 0 mm 1 mps 761 mmHg 90%
20:00 +16°C° 0 mm 1 mps 762 mmHg 90%
21:00 +16°C° 0 mm 1 mps 762 mmHg 90%
22:00 +16°C° 0.1 mm 2 mps 762 mmHg 91%
23:00 +16°C° 0.1 mm 2 mps 761 mmHg 92%

Day after tomorrow, 9 July, Thursday

Time Temperature Precipitation Wind Pressure Humidity
00:00 +16°C° 0.1 mm 3 mps 761 mmHg 93%
01:00 +15°C° 0.5 mm 4 mps 761 mmHg 94%
02:00 +16°C° 0.5 mm 6 mps 761 mmHg 94%
03:00 +16°C° 0.5 mm 7 mps 760 mmHg 95%
04:00 +16°C° 0.3 mm 7 mps 760 mmHg 94%
05:00 +16°C° 0.3 mm 7 mps 760 mmHg 94%
06:00 +16°C° 0.3 mm 6 mps 760 mmHg 94%
07:00 +17°C° 0.1 mm 6 mps 760 mmHg 92%
08:00 +17°C° 0.1 mm 6 mps 760 mmHg 89%
09:00 +17°C° 0.1 mm 6 mps 760 mmHg 87%
10:00 +20°C° 0 mm 7 mps 760 mmHg 81%
11:00 +21°C° 0 mm 7 mps 759 mmHg 75%
12:00 +22°C° 0 mm 7 mps 759 mmHg 69%
13:00 +23°C° 0 mm 7 mps 759 mmHg 67%
14:00 +23°C° 0 mm 8 mps 758 mmHg 65%
15:00 +23°C° 0 mm 8 mps 758 mmHg 63%
16:00 +22°C° 0 mm 8 mps 758 mmHg 66%
17:00 +22°C° 0 mm 8 mps 757 mmHg 69%
18:00 +21°C° 0 mm 8 mps 757 mmHg 71%
19:00 +20°C° 0 mm 8 mps 757 mmHg 75%
20:00 +18°C° 0 mm 8 mps 757 mmHg 79%
21:00 +17°C° 0 mm 8 mps 757 mmHg 82%
22:00 +17°C° 0 mm 8 mps 756 mmHg 84%
23:00 +16°C° 0 mm 8 mps 756 mmHg 86%

10 July, Friday

Time Temperature Precipitation Wind Pressure Humidity
00:00 +16°C° 0 mm 8 mps 756 mmHg 88%
01:00 +16°C° 0.2 mm 8 mps 756 mmHg 89%
02:00 +16°C° 0.2 mm 8 mps 755 mmHg 89%
03:00 +16°C° 0.2 mm 8 mps 755 mmHg 90%
04:00 +16°C° 0.4 mm 7 mps 755 mmHg 90%
05:00 +15°C° 0.4 mm 7 mps 756 mmHg 89%
06:00 +15°C° 0.4 mm 7 mps 756 mmHg 89%
07:00 +15°C° 0.1 mm 7 mps 757 mmHg 85%
08:00 +15°C° 0.1 mm 7 mps 758 mmHg 81%
09:00 +16°C° 0.1 mm 7 mps 758 mmHg 78%
10:00 +16°C° 0.1 mm 7 mps 759 mmHg 73%
11:00 +16°C° 0.1 mm 7 mps 760 mmHg 69%
12:00 +17°C° 0.1 mm 7 mps 760 mmHg 65%
13:00 +17°C° 0 mm 6 mps 761 mmHg 62%
14:00 +17°C° 0 mm 5 mps 761 mmHg 60%
15:00 +17°C° 0 mm 4 mps 761 mmHg 58%
16:00 +17°C° 0 mm 4 mps 762 mmHg 59%
17:00 +17°C° 0 mm 3 mps 762 mmHg 61%
18:00 +16°C° 0 mm 3 mps 762 mmHg 62%
19:00 +15°C° 0 mm 2 mps 763 mmHg 66%
20:00 +14°C° 0 mm 2 mps 763 mmHg 71%
21:00 +13°C° 0 mm 1 mps 764 mmHg 75%
22:00 +12°C° 0 mm 1 mps 764 mmHg 76%
23:00 +12°C° 0 mm 1 mps 764 mmHg 77%

11 July, Saturday

Time Temperature Precipitation Wind Pressure Humidity
00:00 +12°C° 0 mm 1 mps 764 mmHg 78%
01:00 +12°C° 0 mm 1 mps 765 mmHg 78%
02:00 +12°C° 0 mm 2 mps 765 mmHg 79%
03:00 +12°C° 0 mm 2 mps 765 mmHg 79%
04:00 +12°C° 0 mm 2 mps 765 mmHg 77%
05:00 +13°C° 0 mm 2 mps 766 mmHg 75%
06:00 +14°C° 0 mm 2 mps 766 mmHg 73%
07:00 +15°C° 0 mm 2 mps 766 mmHg 68%
08:00 +17°C° 0 mm 2 mps 767 mmHg 63%
09:00 +18°C° 0 mm 2 mps 767 mmHg 58%
10:00 +18°C° 0 mm 2 mps 767 mmHg 57%
11:00 +19°C° 0 mm 3 mps 767 mmHg 56%
12:00 +19°C° 0 mm 3 mps 768 mmHg 55%
13:00 +19°C° 0 mm 3 mps 768 mmHg 58%
14:00 +19°C° 0 mm 4 mps 768 mmHg 60%
15:00 +19°C° 0 mm 4 mps 768 mmHg 63%
16:00 +18°C° 0 mm 4 mps 768 mmHg 64%
17:00 +18°C° 0 mm 4 mps 768 mmHg 66%
18:00 +17°C° 0 mm 4 mps 768 mmHg 67%
19:00 +16°C° 0 mm 3 mps 769 mmHg 72%
20:00 +14°C° 0 mm 3 mps 769 mmHg 77%
21:00 +12°C° 0 mm 3 mps 769 mmHg 82%
22:00 +13°C° 0 mm 2 mps 769 mmHg 83%
23:00 +13°C° 0 mm 2 mps 769 mmHg 84%

12 July, Sunday

Time Temperature Precipitation Wind Pressure Humidity
00:00 +12°C° 0 mm 2 mps 769 mmHg 84%
01:00 +12°C° 0 mm 2 mps 769 mmHg 85%
02:00 +12°C° 0 mm 2 mps 769 mmHg 85%
03:00 +12°C° 0 mm 2 mps 769 mmHg 86%
04:00 +12°C° 0 mm 1 mps 769 mmHg 83%
05:00 +13°C° 0 mm 1 mps 770 mmHg 81%
06:00 +14°C° 0 mm 1 mps 770 mmHg 78%
07:00 +16°C° 0 mm 1 mps 770 mmHg 71%
08:00 +18°C° 0 mm 1 mps 770 mmHg 63%
09:00 +18°C° 0 mm 2 mps 770 mmHg 56%
10:00 +19°C° 0 mm 2 mps 770 mmHg 54%
11:00 +20°C° 0 mm 3 mps 770 mmHg 52%
12:00 +21°C° 0 mm 3 mps 770 mmHg 50%
13:00 +21°C° 0 mm 4 mps 769 mmHg 50%
14:00 +21°C° 0 mm 4 mps 769 mmHg 51%
15:00 +21°C° 0 mm 4 mps 769 mmHg 52%
16:00 +20°C° 0 mm 4 mps 769 mmHg 57%
17:00 +19°C° 0 mm 4 mps 769 mmHg 61%
18:00 +19°C° 0 mm 4 mps 769 mmHg 65%
19:00 +17°C° 0 mm 4 mps 769 mmHg 69%
20:00 +15°C° 0 mm 4 mps 769 mmHg 72%
21:00 +13°C° 0 mm 4 mps 769 mmHg 76%
22:00 +13°C° 0 mm 4 mps 769 mmHg 77%
23:00 +13°C° 0 mm 3 mps 769 mmHg 79%
Show more